Regional Weather Roundup
Issued by NWS

Home | Current Version | Previous Version | Text Only | Print | Product List | Glossary Off
Versions: 1 2 3 4 5 6 7 8 9 10 11 12 13 14 15 16 17 18 19 20 21 22 23 24 25 26 27 28 29 30 31 32 33 34 35 36 37 38 39 40 41 42 43 44 45 46 47 48 49 50

000
ASUS45 KABQ 241810
RWRNM
NEW MEXICO REGIONAL WEATHER ROUNDUP
NATIONAL WEATHER SERVICE ALBUQUERQUE NM
1200 PM MDT SUN MAY 24 2015

NOTE: "FAIR" MEANS FEW OR NO CLOUDS BELOW 12,000 FEET AGL WITH NO
       SIGNIFICANT WEATHER OR OBSTRUCTIONS TO VISION.

      THIS PRODUCT IS RELEASED AS TWO VERSIONS.  ONE VERSION NEAR
      THE TOP OF THE HOUR CONTAINING PRELIMINARY DATA FROM ALBUQUERQUE
      AND OTHER STATIONS.  A FINAL VERSION WITH ADDITIONAL DATA IS
      ISSUED ABOUT 10 MINUTES AFTER THE HOUR.

NMZ501-503-504-510>518-241900-
NORTHWEST PLATEAU/NORTHCENTRAL MOUNTAINS

CITY           SKY/WX    TMP DP  RH WIND       PRES   REMARKS
FARMINGTON     CLOUDY    55  43  63 W8        29.99S
6HR MIN TEMP:  45; 6HR MAX TEMP:  55; 6HR PCP:  0.01;

LOS ALAMOS     PTSUNNY   52  35  52 SW15      30.03S
SANTA FE       PTSUNNY   58  34  40 W17G23    29.99S
6HR MIN TEMP:  39; 6HR MAX TEMP:  60;

TAOS           CLOUDY    46  36  66 N10       30.03R
ANGEL FIRE     MOCLDY    47  34  59 W8        30.02F

$$
NMZ402-403-502-505>509-241900-
WESTCENTRAL MOUNTAINS/SOUTHWEST MOUNTAINS

CITY           SKY/WX    TMP DP  RH WIND       PRES   REMARKS
GALLUP         LGT RAIN  51  35  54 W14       30.05R
6HR MIN TEMP:  43; 6HR MAX TEMP:  52; 6HR PCP: TRACE;

GRANTS         CLOUDY    59  31  34 W14G21    30.03S
SILVER CITY      N/A     64  23  20 W12G20    30.04S

$$
NMZ407-409-411-412-241900-
SOUTHERN DESERTS

CITY           SKY/WX    TMP DP  RH WIND       PRES   REMARKS
LORDSBURG      FAIR      70  28  21 W12G20    29.99F
DEMING         SUNNY     71  27  19 W13G22    29.98F
6HR MIN TEMP:  43; 6HR MAX TEMP:  73;

LAS CRUCES     SUNNY     71  26  18 W13G21    30.00F
HOLLOMAN AFB   MOSUNNY   73  27  18 W5G24     29.94F
ALAMOGORDO     SUNNY     72  25  17 W6        29.97F
T OR C         SUNNY     68  24  19 VRB3      29.96F
6HR MIN TEMP:  50; 6HR MAX TEMP:  69;


$$
NMZ519>523-241900-
CENTRAL VALLEYS/CENTRAL HIGHLANDS

CITY           SKY/WX    TMP DP  RH WIND       PRES   REMARKS
ALBUQUERQUE    MOSUNNY   63  34  33 SW8       29.98F
6HR MIN TEMP:  47; 6HR MAX TEMP:  64;

DOUBLE EAGLE   PTSUNNY   61  36  39 S7        30.00F
MORIARTY ARPT  FAIR      63  30  29 W18G25    30.00F
6HR MIN TEMP:  37; 6HR MAX TEMP:  63;

CLINES CORNERS MOSUNNY   60  31  33 W20G30    29.99
6HR MIN TEMP:  39; 6HR MAX TEMP:  60;

BELEN          FAIR      66  32  28 S9G16     29.98F
6HR MIN TEMP:  40; 6HR MAX TEMP:  66;

SOCORRO        FAIR      66  30  26 SE9       29.98S
6HR MIN TEMP:  48; 6HR MAX TEMP:  67;


$$
NMZ524>526-539-540-241900-
SOUTHCENTRAL MOUNTAINS

CITY           SKY/WX    TMP DP  RH WIND       PRES   REMARKS
RUIDOSO        MOSUNNY   63  25  23 S14G21    30.04F

$$
NMZ527>531-241900-
NORTHEAST HIGHLANDS/NORTHEAST PLAINS

CITY           SKY/WX    TMP DP  RH WIND       PRES   REMARKS
LAS VEGAS      PTSUNNY   61  34  36 SW17G23   29.95F
6HR MIN TEMP:  38; 6HR MAX TEMP:  61;

RATON          PTSUNNY   62  34  35 S17       29.90S
6HR MIN TEMP:  36; 6HR MAX TEMP:  63;

CLAYTON        SUNNY     69  49  48 SE15      29.87F
6HR MIN TEMP:  53; 6HR MAX TEMP:  69;


$$
NMZ532>537-241900-
EASTCENTRAL PLAINS

CITY           SKY/WX    TMP DP  RH WIND       PRES   REMARKS
TUCUMCARI      SUNNY     73  41  31 SW8       29.85F
6HR MIN TEMP:  53; 6HR MAX TEMP:  73;

CANNON AFB     SUNNY     72  38  29 W14       29.89R
6HR MIN TEMP:  48; 6HR MAX TEMP:  73;

CLOVIS AIRPORT SUNNY     72  43  35 W10       29.86F

$$
NMZ028-029-538-241900-
SOUTHEAST PLAINS

CITY           SKY/WX    TMP DP  RH WIND       PRES   REMARKS
ROSWELL        SUNNY     79  29  16 W7        29.87F
6HR MIN TEMP:  45; 6HR MAX TEMP:  79;

ARTESIA        SUNNY     79  27  14 SW16G29   29.89F
CARLSBAD       SUNNY     81  30  15 W20G28    29.89F
6HR MIN TEMP:  51; 6HR MAX TEMP:  81;

HOBBS          SUNNY     75  32  20 SW15G21   29.92F


$$


USA.gov is the U.S. government's official web portal to all federal, state and local government web resources and services.